Time,TemperatureF,DewpointF,PressureIn,WindDirection,WindDirectionDegrees,WindSpeedMPH,WindSpeedGustMPH,Humidity,HourlyPrecipIn,Conditions,Clouds,dailyrainin,SoftwareType,DateUTC
2013-10-23 00:05:00,53.7,44.0,29.80,WNW,303,2.0,9.0,69,0.00,,,0.01,weatherlink.com 1.10,2013-10-23 04:05:00,
2013-10-23 00:16:00,53.2,43.0,29.80,NW,319,4.0,5.0,69,0.00,,,0.01,weatherlink.com 1.10,2013-10-23 04:16:00,
2013-10-23 00:31:00,53.3,42.0,29.80,NW,324,3.0,10.0,66,0.00,,,0.01,weatherlink.com 1.10,2013-10-23 04:31:00,
2013-10-23 00:46:00,52.7,42.0,29.80,NW,324,2.0,6.0,68,0.00,,,0.01,weatherlink.com 1.10,2013-10-23 04:46:00,
2013-10-23 01:06:00,52.4,42.0,29.82,NNW,336,0.0,6.0,68,0.00,,,0.01,weatherlink.com 1.10,2013-10-23 05:06:00,
2013-10-23 01:17:00,51.9,42.0,29.81,NW,323,4.0,7.0,68,0.00,,,0.01,weatherlink.com 1.10,2013-10-23 05:17:00,
2013-10-23 01:32:00,52.2,41.0,29.81,NW,319,3.0,6.0,67,0.00,,,0.01,weatherlink.com 1.10,2013-10-23 05:32:00,
2013-10-23 01:47:00,52.1,42.0,29.81,NNW,328,1.0,9.0,68,0.00,,,0.01,weatherlink.com 1.10,2013-10-23 05:47:00,
2013-10-23 02:05:00,51.6,41.0,29.81,West,279,5.0,9.0,68,0.00,,,0.01,weatherlink.com 1.10,2013-10-23 06:05:00,
2013-10-23 02:16:00,51.0,42.0,29.81,NW,319,1.0,6.0,71,0.00,,,0.01,weatherlink.com 1.10,2013-10-23 06:16:00,
2013-10-23 02:31:00,50.7,39.0,29.81,NNW,340,4.0,9.0,65,0.00,,,0.01,weatherlink.com 1.10,2013-10-23 06:31:00,
2013-10-23 02:47:00,50.9,38.0,29.82,West,260,2.0,11.0,61,0.00,,,0.01,weatherlink.com 1.10,2013-10-23 06:47:00,
2013-10-23 03:05:00,50.8,38.0,29.82,NNW,327,4.0,10.0,61,0.00,,,0.01,weatherlink.com 1.10,2013-10-23 07:05:00,
2013-10-23 03:16:00,50.5,37.0,29.81,NW,325,5.0,10.0,60,0.00,,,0.01,weatherlink.com 1.10,2013-10-23 07:16:00,
2013-10-23 03:31:00,50.8,37.0,29.81,NNW,336,3.0,8.0,59,0.00,,,0.01,weatherlink.com 1.10,2013-10-23 07:31:00,
2013-10-23 03:46:00,50.7,37.0,29.80,North,358,1.0,6.0,59,0.00,,,0.00,weatherlink.com 1.10,2013-10-23 07:46:00,
2013-10-23 04:06:00,50.2,37.0,29.81,NNW,346,3.0,6.0,60,0.00,,,0.00,weatherlink.com 1.10,2013-10-23 08:06:00,
2013-10-23 04:17:00,49.9,37.0,29.80,North,359,1.0,3.0,62,0.00,,,0.00,weatherlink.com 1.10,2013-10-23 08:17:00,
2013-10-23 04:32:00,48.9,37.0,29.80,North,359,1.0,5.0,64,0.00,,,0.00,weatherlink.com 1.10,2013-10-23 08:32:00,
2013-10-23 04:47:00,48.1,37.0,29.80,North,4,0.0,3.0,65,0.00,,,0.00,weatherlink.com 1.10,2013-10-23 08:47:00,
2013-10-23 05:06:00,48.0,37.0,29.80,NNW,345,0.0,4.0,65,0.00,,,0.00,weatherlink.com 1.10,2013-10-23 09:06:00,
2013-10-23 05:17:00,47.1,36.0,29.80,NNW,331,0.0,2.0,65,0.00,,,0.00,weatherlink.com 1.10,2013-10-23 09:17:00,
2013-10-23 05:32:00,45.2,36.0,29.80,NNW,331,0.0,3.0,71,0.00,,,0.00,weatherlink.com 1.10,2013-10-23 09:32:00,
2013-10-23 05:47:00,43.7,36.0,29.80,NNW,331,0.0,1.0,73,0.00,,,0.00,weatherlink.com 1.10,2013-10-23 09:47:00,
2013-10-23 06:05:00,42.5,35.0,29.79,NNW,331,1.0,1.0,76,0.00,,,0.00,weatherlink.com 1.10,2013-10-23 10:05:00,
2013-10-23 06:18:00,40.7,35.0,29.78,NNW,331,0.0,0.0,81,0.00,,,0.00,weatherlink.com 1.10,2013-10-23 10:18:00,
2013-10-23 06:33:00,40.0,35.0,29.77,NW,321,0.0,2.0,82,0.00,,,0.00,weatherlink.com 1.10,2013-10-23 10:33:00,
2013-10-23 06:48:00,38.8,35.0,29.78,NW,321,0.0,2.0,85,0.00,,,0.00,weatherlink.com 1.10,2013-10-23 10:48:00,
2013-10-23 07:05:00,38.3,35.0,29.76,NW,321,0.0,0.0,87,0.00,,,0.00,weatherlink.com 1.10,2013-10-23 11:05:00,
2013-10-23 07:17:00,38.4,36.0,29.78,NW,321,0.0,2.0,89,0.00,,,0.00,weatherlink.com 1.10,2013-10-23 11:17:00,
2013-10-23 07:32:00,38.0,35.0,29.77,NW,321,0.0,0.0,88,0.00,,,0.00,weatherlink.com 1.10,2013-10-23 11:32:00,
2013-10-23 07:47:00,38.1,36.0,29.77,NW,321,0.0,1.0,91,0.00,,,0.00,weatherlink.com 1.10,2013-10-23 11:47:00,
2013-10-23 08:04:00,38.8,36.0,29.77,NW,321,0.0,0.0,91,0.00,,,0.00,weatherlink.com 1.10,2013-10-23 12:04:00,
2013-10-23 08:17:00,39.3,37.0,29.76,NW,321,0.0,1.0,92,0.00,,,0.00,weatherlink.com 1.10,2013-10-23 12:17:00,
2013-10-23 08:32:00,40.6,39.0,29.77,NW,321,0.0,1.0,92,0.00,,,0.00,weatherlink.com 1.10,2013-10-23 12:32:00,
2013-10-23 08:47:00,44.2,42.0,29.77,NW,321,0.0,1.0,93,0.00,,,0.00,weatherlink.com 1.10,2013-10-23 12:47:00,
2013-10-23 09:06:00,46.8,42.0,29.77,NW,323,0.0,2.0,83,0.00,,,0.00,weatherlink.com 1.10,2013-10-23 13:06:00,
2013-10-23 09:18:00,49.9,42.0,29.77,NE,49,1.0,2.0,73,0.00,,,0.00,weatherlink.com 1.10,2013-10-23 13:18:00,
2013-10-23 09:33:00,52.0,41.0,29.76,NNW,348,2.0,7.0,66,0.00,,,0.00,weatherlink.com 1.10,2013-10-23 13:33:00,
2013-10-23 09:48:00,52.9,41.0,29.76,North,5,3.0,7.0,65,0.00,,,0.00,weatherlink.com 1.10,2013-10-23 13:48:00,
2013-10-23 10:06:00,53.1,39.0,29.75,NE,46,1.0,6.0,60,0.00,,,0.00,weatherlink.com 1.10,2013-10-23 14:06:00,
2013-10-23 10:18:00,53.5,41.0,29.75,North,11,0.0,4.0,62,0.00,,,0.00,weatherlink.com 1.10,2013-10-23 14:18:00,
2013-10-23 10:33:00,53.4,41.0,29.75,North,1,2.0,4.0,63,0.00,,,0.00,weatherlink.com 1.10,2013-10-23 14:33:00,
2013-10-23 10:48:00,53.1,41.0,29.74,NNW,344,1.0,3.0,64,0.00,,,0.00,weatherlink.com 1.10,2013-10-23 14:48:00,
2013-10-23 11:05:00,53.3,41.0,29.73,North,7,3.0,4.0,64,0.00,,,0.00,weatherlink.com 1.10,2013-10-23 15:05:00,
2013-10-23 11:18:00,52.8,41.0,29.73,NNE,14,2.0,4.0,65,0.00,,,0.00,weatherlink.com 1.10,2013-10-23 15:18:00,
2013-10-23 11:33:00,53.0,42.0,29.72,North,358,1.0,3.0,66,0.00,,,0.00,weatherlink.com 1.10,2013-10-23 15:33:00,
2013-10-23 11:48:00,53.2,42.0,29.71,NNW,331,0.0,4.0,66,0.00,,,0.00,weatherlink.com 1.10,2013-10-23 15:48:00,
2013-10-23 12:05:00,53.1,41.0,29.70,North,5,2.0,5.0,64,0.00,,,0.00,weatherlink.com 1.10,2013-10-23 16:05:00,
2013-10-23 12:18:00,53.2,42.0,29.69,NW,311,3.0,5.0,66,0.00,,,0.00,weatherlink.com 1.10,2013-10-23 16:18:00,
2013-10-23 12:34:00,53.5,42.0,29.68,NNE,14,1.0,5.0,65,0.00,,,0.00,weatherlink.com 1.10,2013-10-23 16:34:00,
2013-10-23 12:49:00,53.4,42.0,29.68,NNE,23,1.0,5.0,65,0.00,,,0.00,weatherlink.com 1.10,2013-10-23 16:49:00,
2013-10-23 13:05:00,53.3,42.0,29.67,NE,39,2.0,6.0,65,0.00,,,0.00,weatherlink.com 1.10,2013-10-23 17:05:00,
2013-10-23 13:18:00,53.3,43.0,29.67,NNW,335,3.0,4.0,67,0.00,,,0.00,weatherlink.com 1.10,2013-10-23 17:18:00,
2013-10-23 13:33:00,53.1,42.0,29.66,North,359,2.0,5.0,66,0.00,,,0.00,weatherlink.com 1.10,2013-10-23 17:33:00,
2013-10-23 13:48:00,52.9,42.0,29.65,NE,42,2.0,5.0,67,0.00,,,0.00,weatherlink.com 1.10,2013-10-23 17:48:00,
2013-10-23 14:06:00,52.6,41.0,29.64,NE,52,3.0,5.0,66,0.00,,,0.00,weatherlink.com 1.10,2013-10-23 18:06:00,
2013-10-23 14:19:00,52.4,42.0,29.63,NE,51,0.0,2.0,68,0.00,,,0.00,weatherlink.com 1.10,2013-10-23 18:19:00,
2013-10-23 14:34:00,52.0,42.0,29.62,NNE,18,0.0,3.0,69,0.00,,,0.00,weatherlink.com 1.10,2013-10-23 18:34:00,
2013-10-23 14:49:00,51.9,43.0,29.61,NNE,18,1.0,3.0,72,0.00,,,0.00,weatherlink.com 1.10,2013-10-23 18:49:00,
2013-10-23 15:06:00,51.7,43.0,29.61,NNE,33,0.0,3.0,72,0.00,,,0.00,weatherlink.com 1.10,2013-10-23 19:06:00,
2013-10-23 15:19:00,51.6,43.0,29.61,North,7,0.0,1.0,73,0.00,,,0.00,weatherlink.com 1.10,2013-10-23 19:19:00,
2013-10-23 15:34:00,51.8,44.0,29.59,NNE,24,0.0,2.0,75,0.00,,,0.00,weatherlink.com 1.10,2013-10-23 19:34:00,
2013-10-23 15:49:00,51.3,44.0,29.61,North,5,0.0,1.0,77,0.00,,,0.00,weatherlink.com 1.10,2013-10-23 19:49:00,
2013-10-23 16:05:00,50.5,45.0,29.61,North,1,1.0,2.0,82,0.00,,,0.00,weatherlink.com 1.10,2013-10-23 20:05:00,
2013-10-23 16:18:00,49.6,45.0,29.62,NW,309,0.0,2.0,83,0.01,,,0.01,weatherlink.com 1.10,2013-10-23 20:18:00,
2013-10-23 16:33:00,48.9,45.0,29.62,NW,309,0.0,1.0,86,0.02,,,0.02,weatherlink.com 1.10,2013-10-23 20:33:00,
2013-10-23 16:48:00,48.2,45.0,29.63,NW,309,0.0,0.0,88,0.05,,,0.05,weatherlink.com 1.10,2013-10-23 20:48:00,
2013-10-23 17:05:00,47.9,45.0,29.63,NW,309,1.0,1.0,89,0.07,,,0.07,weatherlink.com 1.10,2013-10-23 21:05:00,
2013-10-23 17:18:00,47.4,45.0,29.62,NW,309,0.0,1.0,90,0.08,,,0.09,weatherlink.com 1.10,2013-10-23 21:18:00,
2013-10-23 17:33:00,46.9,45.0,29.62,NW,309,0.0,2.0,91,0.09,,,0.11,weatherlink.com 1.10,2013-10-23 21:33:00,
2013-10-23 17:48:00,46.7,44.0,29.61,NNW,339,0.0,2.0,91,0.09,,,0.13,weatherlink.com 1.10,2013-10-23 21:48:00,
2013-10-23 18:06:00,46.5,44.0,29.62,NW,318,0.0,4.0,91,0.09,,,0.15,weatherlink.com 1.10,2013-10-23 22:06:00,
2013-10-23 18:19:00,46.2,44.0,29.64,WNW,283,0.0,4.0,91,0.07,,,0.15,weatherlink.com 1.10,2013-10-23 22:19:00,
2013-10-23 18:34:00,45.9,43.0,29.65,NNW,338,0.0,3.0,90,0.06,,,0.17,weatherlink.com 1.10,2013-10-23 22:34:00,
2013-10-23 18:49:00,45.7,43.0,29.65,NNW,347,0.0,3.0,91,0.05,,,0.18,weatherlink.com 1.10,2013-10-23 22:49:00,
2013-10-23 19:04:00,45.6,43.0,29.64,West,262,0.0,5.0,90,0.04,,,0.19,weatherlink.com 1.10,2013-10-23 23:04:00,
2013-10-23 19:19:00,45.4,43.0,29.66,NW,305,0.0,3.0,90,0.06,,,0.21,weatherlink.com 1.10,2013-10-23 23:19:00,
2013-10-23 19:34:00,45.1,42.0,29.66,NW,305,0.0,3.0,89,0.04,,,0.21,weatherlink.com 1.10,2013-10-23 23:34:00,
2013-10-23 19:49:00,44.8,42.0,29.65,NNW,338,1.0,3.0,88,0.04,,,0.22,weatherlink.com 1.10,2013-10-23 23:49:00,
2013-10-23 20:06:00,44.5,41.0,29.65,NNE,27,1.0,4.0,88,0.04,,,0.23,weatherlink.com 1.10,2013-10-24 00:06:00,
2013-10-23 20:20:00,44.0,42.0,29.66,NNW,343,0.0,1.0,91,0.03,,,0.23,weatherlink.com 1.10,2013-10-24 00:20:00,
2013-10-23 20:35:00,43.6,41.0,29.64,NNW,338,0.0,3.0,91,0.02,,,0.23,weatherlink.com 1.10,2013-10-24 00:35:00,
2013-10-23 20:50:00,43.5,41.0,29.64,NNW,338,0.0,0.0,92,0.01,,,0.23,weatherlink.com 1.10,2013-10-24 00:50:00,
2013-10-23 21:05:00,43.4,42.0,29.64,NNW,338,0.0,1.0,93,0.01,,,0.23,weatherlink.com 1.10,2013-10-24 01:05:00,
2013-10-23 21:19:00,43.2,41.0,29.65,NNW,338,0.0,0.0,93,0.00,,,0.23,weatherlink.com 1.10,2013-10-24 01:19:00,
2013-10-23 21:34:00,42.9,41.0,29.65,NNW,338,0.0,0.0,93,0.00,,,0.23,weatherlink.com 1.10,2013-10-24 01:34:00,
2013-10-23 21:49:00,42.6,41.0,29.64,NNW,338,0.0,1.0,94,0.00,,,0.23,weatherlink.com 1.10,2013-10-24 01:49:00,
2013-10-23 22:05:00,42.4,41.0,29.64,NNW,338,0.0,1.0,94,0.00,,,0.23,weatherlink.com 1.10,2013-10-24 02:05:00,
2013-10-23 22:19:00,42.1,41.0,29.65,NNW,338,0.0,0.0,94,0.00,,,0.23,weatherlink.com 1.10,2013-10-24 02:19:00,
2013-10-23 22:34:00,41.9,40.0,29.66,NNW,338,0.0,1.0,94,0.00,,,0.23,weatherlink.com 1.10,2013-10-24 02:34:00,
2013-10-23 22:49:00,41.8,40.0,29.66,NNW,338,0.0,1.0,94,0.00,,,0.23,weatherlink.com 1.10,2013-10-24 02:49:00,
2013-10-23 23:04:00,41.6,40.0,29.66,NNW,338,0.0,1.0,94,0.00,,,0.23,weatherlink.com 1.10,2013-10-24 03:04:00,
2013-10-23 23:19:00,41.2,40.0,29.66,NNW,338,0.0,0.0,95,0.00,,,0.23,weatherlink.com 1.10,2013-10-24 03:19:00,
2013-10-23 23:34:00,41.1,40.0,29.66,NNW,338,0.0,0.0,95,0.00,,,0.23,weatherlink.com 1.10,2013-10-24 03:34:00,
2013-10-23 23:49:00,42.4,41.0,29.66,WNW,288,1.0,5.0,95,0.00,,,0.23,weatherlink.com 1.10,2013-10-24 03:49:00,